Time,TemperatureF,DewpointF,PressureIn,WindDirection,WindDirectionDegrees,WindSpeedMPH,WindSpeedGustMPH,Humidity,HourlyPrecipIn,Conditions,Clouds,dailyrainin,SoftwareType,DateUTC
2013-05-16 00:03:00,63.0,61.5,28.38,SE,135,2.3,9.1,95,0.00,,,0.00,Rainwise IP-100,2013-05-16 05:03:00,
2013-05-16 00:08:00,63.2,62.0,28.38,ESE,112,2.6,7.9,96,0.00,,,0.00,Rainwise IP-100,2013-05-16 05:08:00,
2013-05-16 00:13:00,63.4,62.5,28.38,SSE,157,5.6,8.9,96,0.00,,,0.00,Rainwise IP-100,2013-05-16 05:13:00,
2013-05-16 00:18:00,63.6,62.5,28.38,ESE,112,5.4,10.7,96,0.00,,,0.00,Rainwise IP-100,2013-05-16 05:18:00,
2013-05-16 00:23:00,63.8,62.5,28.37,SE,135,7.0,11.4,95,0.00,,,0.00,Rainwise IP-100,2013-05-16 05:23:00,
2013-05-16 00:28:00,64.1,62.5,28.36,ESE,112,3.0,10.7,95,0.00,,,0.00,Rainwise IP-100,2013-05-16 05:28:00,
2013-05-16 00:33:00,64.3,62.5,28.36,SE,135,8.2,14.0,94,0.00,,,0.00,Rainwise IP-100,2013-05-16 05:33:00,
2013-05-16 00:38:00,64.3,62.5,28.35,SSE,157,9.6,14.0,94,0.00,,,0.00,Rainwise IP-100,2013-05-16 05:38:00,
2013-05-16 00:43:00,64.3,62.5,28.36,SSE,157,5.1,11.7,93,0.00,,,0.00,Rainwise IP-100,2013-05-16 05:43:00,
2013-05-16 00:48:00,64.5,62.5,28.36,SE,135,2.8,10.3,93,0.00,,,0.00,Rainwise IP-100,2013-05-16 05:48:00,
2013-05-16 00:53:00,64.9,62.5,28.36,SSE,157,4.2,9.8,92,0.00,,,0.00,Rainwise IP-100,2013-05-16 05:53:00,
2013-05-16 00:58:00,65.3,63.0,28.36,SE,135,4.9,9.1,92,0.00,,,0.00,Rainwise IP-100,2013-05-16 05:58:00,
2013-05-16 01:03:00,65.5,63.0,28.36,SSE,157,7.5,8.9,92,0.00,,,0.00,Rainwise IP-100,2013-05-16 06:03:00,
2013-05-16 01:08:00,65.7,63.0,28.37,SE,135,6.5,8.4,92,0.00,,,0.00,Rainwise IP-100,2013-05-16 06:08:00,
2013-05-16 01:13:00,65.9,63.5,28.36,SSE,157,11.2,11.2,92,0.00,,,0.00,Rainwise IP-100,2013-05-16 06:13:00,
2013-05-16 01:18:00,66.2,63.5,28.37,SSW,202,7.0,11.2,91,0.00,,,0.00,Rainwise IP-100,2013-05-16 06:18:00,
2013-05-16 01:23:00,66.4,63.5,28.36,South,180,7.2,11.2,91,0.00,,,0.00,Rainwise IP-100,2013-05-16 06:23:00,
2013-05-16 01:28:00,66.5,64.0,28.37,SSE,157,2.8,10.0,91,0.00,,,0.00,Rainwise IP-100,2013-05-16 06:28:00,
2013-05-16 01:33:00,66.3,63.5,28.38,South,180,4.0,9.6,91,0.00,,,0.00,Rainwise IP-100,2013-05-16 06:33:00,
2013-05-16 01:38:00,66.1,63.5,28.38,SSW,202,2.1,9.1,92,0.00,,,0.00,Rainwise IP-100,2013-05-16 06:38:00,
2013-05-16 01:43:00,65.9,63.5,28.37,SSE,157,4.7,8.2,92,0.00,,,0.00,Rainwise IP-100,2013-05-16 06:43:00,
2013-05-16 01:48:00,65.7,63.5,28.38,SE,135,3.3,8.2,93,0.00,,,0.00,Rainwise IP-100,2013-05-16 06:48:00,
2013-05-16 01:53:00,65.5,63.5,28.37,South,180,5.1,5.6,93,0.00,,,0.00,Rainwise IP-100,2013-05-16 06:53:00,
2013-05-16 01:58:00,65.4,63.5,28.38,SSE,157,5.4,8.4,94,0.00,,,0.00,Rainwise IP-100,2013-05-16 06:58:00,
2013-05-16 02:03:00,65.2,63.0,28.37,SSE,157,6.5,8.2,94,0.00,,,0.00,Rainwise IP-100,2013-05-16 07:03:00,
2013-05-16 02:08:00,65.0,63.0,28.37,SSE,157,4.4,9.8,94,0.00,,,0.00,Rainwise IP-100,2013-05-16 07:08:00,
2013-05-16 02:13:00,64.7,63.0,28.37,SSE,157,3.5,8.4,95,0.00,,,0.00,Rainwise IP-100,2013-05-16 07:13:00,
2013-05-16 02:18:00,64.7,63.0,28.37,SSE,157,4.7,11.0,95,0.00,,,0.00,Rainwise IP-100,2013-05-16 07:18:00,
2013-05-16 02:23:00,64.6,62.5,28.37,SSE,157,4.7,9.1,94,0.00,,,0.00,Rainwise IP-100,2013-05-16 07:23:00,
2013-05-16 02:28:00,64.5,62.5,28.37,South,180,3.7,8.9,94,0.00,,,0.00,Rainwise IP-100,2013-05-16 07:28:00,
2013-05-16 02:33:00,64.4,62.5,28.37,SSE,157,4.0,4.9,94,0.00,,,0.00,Rainwise IP-100,2013-05-16 07:33:00,
2013-05-16 02:38:00,64.4,62.5,28.36,SSE,157,3.5,4.7,94,0.00,,,0.00,Rainwise IP-100,2013-05-16 07:38:00,
2013-05-16 02:43:00,64.3,62.5,28.36,SSE,157,2.3,6.8,94,0.00,,,0.00,Rainwise IP-100,2013-05-16 07:43:00,
2013-05-16 02:48:00,64.3,63.0,28.36,SSE,157,2.1,6.5,95,0.00,,,0.00,Rainwise IP-100,2013-05-16 07:48:00,
2013-05-16 02:53:00,64.4,63.0,28.36,SSE,157,1.4,5.4,95,0.00,,,0.00,Rainwise IP-100,2013-05-16 07:53:00,
2013-05-16 02:58:00,64.3,63.0,28.36,SSE,157,4.0,6.3,95,0.00,,,0.00,Rainwise IP-100,2013-05-16 07:58:00,
2013-05-16 03:03:00,64.2,62.5,28.35,SSE,157,3.3,5.1,95,0.00,,,0.00,Rainwise IP-100,2013-05-16 08:03:00,
2013-05-16 03:08:00,64.1,62.5,28.35,SSE,157,4.7,5.1,95,0.00,,,0.00,Rainwise IP-100,2013-05-16 08:08:00,
2013-05-16 03:13:00,64.0,62.5,28.35,SSE,157,2.1,5.6,95,0.00,,,0.00,Rainwise IP-100,2013-05-16 08:13:00,
2013-05-16 03:18:00,64.0,62.5,28.34,South,180,7.2,7.2,95,0.00,,,0.00,Rainwise IP-100,2013-05-16 08:18:00,
2013-05-16 03:23:00,64.2,62.5,28.34,SSE,157,4.7,7.9,95,0.00,,,0.00,Rainwise IP-100,2013-05-16 08:23:00,
2013-05-16 03:28:00,64.5,63.0,28.34,South,180,3.3,7.7,95,0.00,,,0.00,Rainwise IP-100,2013-05-16 08:28:00,
2013-05-16 03:33:00,64.7,63.0,28.34,SSE,157,3.7,7.7,95,0.00,,,0.00,Rainwise IP-100,2013-05-16 08:33:00,
2013-05-16 03:38:00,64.8,63.5,28.34,SE,135,2.6,5.6,95,0.00,,,0.00,Rainwise IP-100,2013-05-16 08:38:00,
2013-05-16 03:43:00,64.8,63.5,28.34,SE,135,2.6,4.9,95,0.00,,,0.00,Rainwise IP-100,2013-05-16 08:43:00,
2013-05-16 03:48:00,64.6,63.0,28.34,SSE,157,2.3,4.9,95,0.00,,,0.00,Rainwise IP-100,2013-05-16 08:48:00,
2013-05-16 03:53:00,64.4,63.0,28.34,SSE,157,4.0,6.8,95,0.00,,,0.00,Rainwise IP-100,2013-05-16 08:53:00,
2013-05-16 03:58:00,64.4,63.5,28.33,South,180,2.1,6.8,96,0.00,,,0.00,Rainwise IP-100,2013-05-16 08:58:00,
2013-05-16 04:03:00,64.7,63.5,28.33,SSE,157,4.4,6.8,96,0.00,,,0.00,Rainwise IP-100,2013-05-16 09:03:00,
2013-05-16 04:08:00,65.1,64.0,28.33,SSE,157,4.2,8.2,96,0.00,,,0.00,Rainwise IP-100,2013-05-16 09:08:00,
2013-05-16 04:13:00,65.6,64.0,28.33,South,180,4.4,8.6,96,0.00,,,0.00,Rainwise IP-100,2013-05-16 09:13:00,
2013-05-16 04:18:00,65.9,64.5,28.34,SE,135,4.0,7.2,96,0.00,,,0.00,Rainwise IP-100,2013-05-16 09:18:00,
2013-05-16 04:23:00,66.2,65.0,28.34,ESE,112,3.7,11.4,95,0.00,,,0.00,Rainwise IP-100,2013-05-16 09:23:00,
2013-05-16 04:28:00,66.3,65.0,28.34,East,90,2.1,8.4,95,0.00,,,0.00,Rainwise IP-100,2013-05-16 09:28:00,
2013-05-16 04:33:00,66.1,64.5,28.34,SSE,157,4.9,8.6,95,0.00,,,0.00,Rainwise IP-100,2013-05-16 09:33:00,
2013-05-16 04:38:00,65.9,64.5,28.34,SSE,157,4.9,9.1,95,0.00,,,0.00,Rainwise IP-100,2013-05-16 09:38:00,
2013-05-16 04:43:00,65.8,64.5,28.34,SE,135,3.3,8.6,96,0.00,,,0.00,Rainwise IP-100,2013-05-16 09:43:00,
2013-05-16 04:48:00,65.8,64.5,28.33,North,360,4.2,7.5,96,0.00,,,0.00,Rainwise IP-100,2013-05-16 09:48:00,
2013-05-16 04:53:00,65.9,64.5,28.34,North,360,2.8,7.9,96,0.00,,,0.00,Rainwise IP-100,2013-05-16 09:53:00,
2013-05-16 04:58:00,66.0,64.5,28.33,SSE,157,3.0,7.2,96,0.00,,,0.00,Rainwise IP-100,2013-05-16 09:58:00,
2013-05-16 05:03:00,66.0,64.5,28.34,North,360,2.3,5.1,96,0.00,,,0.00,Rainwise IP-100,2013-05-16 10:03:00,
2013-05-16 05:08:00,65.9,65.0,28.33,ESE,112,4.9,6.1,97,0.00,,,0.00,Rainwise IP-100,2013-05-16 10:08:00,
2013-05-16 05:13:00,65.8,65.0,28.33,ESE,112,4.9,8.6,97,0.00,,,0.00,Rainwise IP-100,2013-05-16 10:13:00,
2013-05-16 05:18:00,65.8,65.0,28.34,SSE,157,4.7,10.3,97,0.00,,,0.00,Rainwise IP-100,2013-05-16 10:18:00,
2013-05-16 05:23:00,65.8,65.0,28.34,North,360,5.8,9.1,97,0.00,,,0.00,Rainwise IP-100,2013-05-16 10:23:00,
2013-05-16 05:28:00,65.8,65.0,28.34,SSE,157,2.1,8.2,97,0.00,,,0.00,Rainwise IP-100,2013-05-16 10:28:00,
2013-05-16 05:33:00,66.0,65.0,28.34,North,360,3.0,10.7,97,0.00,,,0.00,Rainwise IP-100,2013-05-16 10:33:00,
2013-05-16 05:38:00,66.2,65.5,28.34,North,360,3.3,10.3,97,0.00,,,0.00,Rainwise IP-100,2013-05-16 10:38:00,
2013-05-16 05:43:00,66.4,66.0,28.34,North,360,9.1,10.7,98,0.00,,,0.00,Rainwise IP-100,2013-05-16 10:43:00,
2013-05-16 05:48:00,66.5,66.3,28.34,North,360,3.3,9.3,98,0.00,,,0.00,Rainwise IP-100,2013-05-16 10:48:00,
2013-05-16 05:53:00,66.5,66.3,28.34,North,360,4.2,10.0,98,0.00,,,0.00,Rainwise IP-100,2013-05-16 10:53:00,
2013-05-16 05:58:00,66.6,66.3,28.34,North,360,11.0,11.0,98,0.00,,,0.00,Rainwise IP-100,2013-05-16 10:58:00,
2013-05-16 06:03:00,66.8,66.3,28.34,North,360,3.0,11.0,98,0.00,,,0.00,Rainwise IP-100,2013-05-16 11:03:00,
2013-05-16 06:08:00,67.0,66.7,28.34,North,360,3.5,7.2,98,0.00,,,0.00,Rainwise IP-100,2013-05-16 11:08:00,
2013-05-16 06:13:00,67.0,66.7,28.34,North,360,3.3,7.7,98,0.00,,,0.00,Rainwise IP-100,2013-05-16 11:13:00,
2013-05-16 06:18:00,67.1,66.7,28.35,North,360,7.9,7.9,98,0.00,,,0.00,Rainwise IP-100,2013-05-16 11:18:00,
2013-05-16 06:23:00,67.1,66.7,28.34,North,360,4.7,10.0,98,0.00,,,0.00,Rainwise IP-100,2013-05-16 11:23:00,
2013-05-16 06:28:00,67.2,66.7,28.34,North,360,4.9,8.2,98,0.00,,,0.00,Rainwise IP-100,2013-05-16 11:28:00,
2013-05-16 06:33:00,67.4,67.0,28.34,North,360,2.3,8.9,98,0.00,,,0.00,Rainwise IP-100,2013-05-16 11:33:00,
2013-05-16 06:38:00,67.5,67.0,28.34,North,360,3.3,6.5,98,0.00,,,0.00,Rainwise IP-100,2013-05-16 11:38:00,
2013-05-16 06:43:00,67.6,67.0,28.34,North,360,2.1,7.0,98,0.00,,,0.00,Rainwise IP-100,2013-05-16 11:43:00,
2013-05-16 06:48:00,67.8,67.5,28.35,North,360,5.8,7.0,98,0.00,,,0.00,Rainwise IP-100,2013-05-16 11:48:00,
2013-05-16 06:53:00,67.9,67.5,28.34,North,360,9.8,9.8,98,0.00,,,0.00,Rainwise IP-100,2013-05-16 11:53:00,
2013-05-16 06:58:00,68.2,67.5,28.34,North,360,3.0,10.0,98,0.00,,,0.00,Rainwise IP-100,2013-05-16 11:58:00,
2013-05-16 07:03:00,68.4,68.0,28.34,North,360,5.1,11.0,98,0.00,,,0.00,Rainwise IP-100,2013-05-16 12:03:00,
2013-05-16 07:08:00,68.6,68.0,28.35,North,360,5.4,11.0,98,0.00,,,0.00,Rainwise IP-100,2013-05-16 12:08:00,
2013-05-16 07:13:00,68.8,68.5,28.35,North,360,6.1,10.7,98,0.00,,,0.00,Rainwise IP-100,2013-05-16 12:13:00,
2013-05-16 07:18:00,68.9,68.0,28.35,North,360,4.2,11.2,97,0.00,,,0.00,Rainwise IP-100,2013-05-16 12:18:00,
2013-05-16 07:23:00,69.0,68.0,28.35,North,360,5.6,8.9,97,0.00,,,0.00,Rainwise IP-100,2013-05-16 12:23:00,
2013-05-16 07:28:00,69.1,68.0,28.35,North,360,7.5,8.9,97,0.00,,,0.00,Rainwise IP-100,2013-05-16 12:28:00,
2013-05-16 07:33:00,69.3,68.5,28.35,North,360,8.6,10.0,97,0.00,,,0.00,Rainwise IP-100,2013-05-16 12:33:00,
2013-05-16 07:38:00,69.4,68.5,28.36,North,360,4.9,10.7,97,0.00,,,0.00,Rainwise IP-100,2013-05-16 12:38:00,
2013-05-16 07:43:00,69.5,68.5,28.35,North,360,4.2,11.0,96,0.00,,,0.00,Rainwise IP-100,2013-05-16 12:43:00,
2013-05-16 07:48:00,69.7,68.5,28.36,North,360,6.1,11.0,96,0.00,,,0.00,Rainwise IP-100,2013-05-16 12:48:00,
2013-05-16 07:53:00,69.8,68.5,28.37,North,360,4.4,8.4,96,0.00,,,0.00,Rainwise IP-100,2013-05-16 12:53:00,
2013-05-16 07:58:00,69.8,68.5,28.36,North,360,3.3,8.6,96,0.00,,,0.00,Rainwise IP-100,2013-05-16 12:58:00,
2013-05-16 08:03:00,69.9,69.0,28.37,North,360,6.8,8.9,96,0.00,,,0.00,Rainwise IP-100,2013-05-16 13:03:00,
2013-05-16 08:08:00,69.9,69.0,28.37,SSE,157,7.0,8.6,96,0.00,,,0.00,Rainwise IP-100,2013-05-16 13:08:00,
2013-05-16 08:13:00,70.1,69.0,28.36,North,360,7.7,12.8,96,0.00,,,0.00,Rainwise IP-100,2013-05-16 13:13:00,
2013-05-16 08:18:00,70.2,68.5,28.36,SSE,157,4.0,12.6,95,0.00,,,0.00,Rainwise IP-100,2013-05-16 13:18:00,
2013-05-16 08:23:00,70.3,69.0,28.36,North,360,4.9,12.1,95,0.00,,,0.00,Rainwise IP-100,2013-05-16 13:23:00,
2013-05-16 08:28:00,70.4,69.0,28.37,SSE,157,3.5,9.6,95,0.00,,,0.00,Rainwise IP-100,2013-05-16 13:28:00,
2013-05-16 08:33:00,70.6,69.0,28.37,ESE,112,4.4,14.0,95,0.00,,,0.00,Rainwise IP-100,2013-05-16 13:33:00,
2013-05-16 08:38:00,70.7,69.0,28.37,SSE,157,9.6,10.7,94,0.00,,,0.00,Rainwise IP-100,2013-05-16 13:38:00,
2013-05-16 08:43:00,70.8,69.0,28.37,SSE,157,4.9,11.7,94,0.00,,,0.00,Rainwise IP-100,2013-05-16 13:43:00,
2013-05-16 08:48:00,70.9,69.0,28.37,SSE,157,6.8,10.3,94,0.00,,,0.00,Rainwise IP-100,2013-05-16 13:48:00,
2013-05-16 08:53:00,71.0,69.0,28.37,SSE,157,4.0,10.5,94,0.00,,,0.00,Rainwise IP-100,2013-05-16 13:53:00,
2013-05-16 08:58:00,71.2,69.3,28.38,SSE,157,4.9,9.1,94,0.00,,,0.00,Rainwise IP-100,2013-05-16 13:58:00,
2013-05-16 09:03:00,71.3,69.3,28.38,SE,135,6.1,9.3,93,0.00,,,0.00,Rainwise IP-100,2013-05-16 14:03:00,
2013-05-16 09:08:00,71.5,69.7,28.38,ESE,112,4.9,8.4,93,0.00,,,0.00,Rainwise IP-100,2013-05-16 14:08:00,
2013-05-16 09:13:00,71.6,69.7,28.38,SSE,157,2.8,8.9,93,0.00,,,0.00,Rainwise IP-100,2013-05-16 14:13:00,
2013-05-16 09:18:00,71.6,69.7,28.37,SE,135,5.6,11.0,93,0.00,,,0.00,Rainwise IP-100,2013-05-16 14:18:00,
2013-05-16 09:23:00,71.7,69.3,28.37,SSE,157,7.5,10.5,92,0.00,,,0.00,Rainwise IP-100,2013-05-16 14:23:00,
2013-05-16 09:28:00,72.0,69.7,28.37,SSE,157,4.4,10.7,92,0.00,,,0.00,Rainwise IP-100,2013-05-16 14:28:00,
2013-05-16 09:33:00,72.3,69.7,28.38,SSE,157,3.7,12.6,91,0.00,,,0.00,Rainwise IP-100,2013-05-16 14:33:00,
2013-05-16 09:38:00,72.6,70.0,28.37,SSE,157,6.8,9.8,91,0.00,,,0.00,Rainwise IP-100,2013-05-16 14:38:00,
2013-05-16 09:43:00,72.9,70.0,28.38,SSE,157,5.8,12.6,90,0.00,,,0.00,Rainwise IP-100,2013-05-16 14:43:00,
2013-05-16 09:48:00,73.3,70.5,28.37,SSE,157,4.7,10.5,90,0.00,,,0.00,Rainwise IP-100,2013-05-16 14:48:00,
2013-05-16 09:53:00,73.9,71.0,28.37,SSE,157,6.5,10.3,89,0.00,,,0.00,Rainwise IP-100,2013-05-16 14:53:00,
2013-05-16 09:58:00,74.3,71.0,28.37,SSW,202,4.9,10.5,88,0.00,,,0.00,Rainwise IP-100,2013-05-16 14:58:00,
2013-05-16 10:03:00,74.5,71.0,28.37,SSW,202,4.9,11.9,87,0.00,,,0.00,Rainwise IP-100,2013-05-16 15:03:00,
2013-05-16 10:08:00,74.7,70.5,28.37,South,180,12.4,12.4,86,0.00,,,0.00,Rainwise IP-100,2013-05-16 15:08:00,
2013-05-16 10:13:00,74.9,71.0,28.37,SSE,157,4.7,12.4,86,0.00,,,0.00,Rainwise IP-100,2013-05-16 15:13:00,
2013-05-16 10:18:00,75.2,71.0,28.37,SE,135,5.8,10.5,86,0.00,,,0.00,Rainwise IP-100,2013-05-16 15:18:00,
2013-05-16 10:23:00,75.4,71.0,28.36,SSW,202,7.9,12.8,85,0.00,,,0.00,Rainwise IP-100,2013-05-16 15:23:00,
2013-05-16 10:28:00,75.4,70.5,28.37,South,180,7.2,9.6,84,0.00,,,0.00,Rainwise IP-100,2013-05-16 15:28:00,
2013-05-16 10:33:00,75.6,70.5,28.37,SSE,157,5.4,11.7,84,0.00,,,0.00,Rainwise IP-100,2013-05-16 15:33:00,
2013-05-16 10:38:00,75.9,71.0,28.37,SE,135,10.3,11.2,84,0.00,,,0.00,Rainwise IP-100,2013-05-16 15:38:00,
2013-05-16 10:43:00,76.6,71.0,28.36,SW,225,1.9,13.1,83,0.00,,,0.00,Rainwise IP-100,2013-05-16 15:43:00,
2013-05-16 10:48:00,77.0,71.0,28.36,SSW,202,5.1,12.8,81,0.00,,,0.00,Rainwise IP-100,2013-05-16 15:48:00,
2013-05-16 10:53:00,77.2,71.0,28.37,SSE,157,8.9,11.7,80,0.00,,,0.00,Rainwise IP-100,2013-05-16 15:53:00,
2013-05-16 10:58:00,77.6,71.0,28.36,SSE,157,8.9,13.5,79,0.00,,,0.00,Rainwise IP-100,2013-05-16 15:58:00,
2013-05-16 11:03:00,78.1,70.5,28.36,South,180,6.8,11.2,77,0.00,,,0.00,Rainwise IP-100,2013-05-16 16:03:00,
2013-05-16 11:08:00,78.6,70.5,28.36,SSE,157,4.7,13.5,76,0.00,,,0.00,Rainwise IP-100,2013-05-16 16:08:00,
2013-05-16 11:13:00,78.9,71.0,28.36,SW,225,6.8,11.4,76,0.00,,,0.00,Rainwise IP-100,2013-05-16 16:13:00,
2013-05-16 11:18:00,79.2,71.0,28.36,SW,225,6.3,12.8,75,0.00,,,0.00,Rainwise IP-100,2013-05-16 16:18:00,
2013-05-16 11:23:00,79.5,70.5,28.35,SSW,202,4.2,13.3,74,0.00,,,0.00,Rainwise IP-100,2013-05-16 16:23:00,
2013-05-16 11:28:00,79.8,70.0,28.36,South,180,5.6,12.1,73,0.00,,,0.00,Rainwise IP-100,2013-05-16 16:28:00,
2013-05-16 11:33:00,80.0,70.5,28.36,SSW,202,6.1,12.8,73,0.00,,,0.00,Rainwise IP-100,2013-05-16 16:33:00,
2013-05-16 11:39:00,80.2,70.5,28.35,SSW,202,3.0,11.4,72,0.00,,,0.00,Rainwise IP-100,2013-05-16 16:39:00,
2013-05-16 11:44:00,80.5,71.0,28.36,SW,225,6.3,11.2,72,0.00,,,0.00,Rainwise IP-100,2013-05-16 16:44:00,
2013-05-16 11:49:00,80.7,70.5,28.35,SSW,202,3.5,11.4,71,0.00,,,0.00,Rainwise IP-100,2013-05-16 16:49:00,
2013-05-16 11:54:00,80.9,70.5,28.35,South,180,4.7,11.4,70,0.00,,,0.00,Rainwise IP-100,2013-05-16 16:54:00,
2013-05-16 11:59:00,81.3,71.0,28.36,SSW,202,6.1,11.7,70,0.00,,,0.00,Rainwise IP-100,2013-05-16 16:59:00,
2013-05-16 12:04:00,81.7,70.5,28.35,SSW,202,4.7,9.6,69,0.00,,,0.00,Rainwise IP-100,2013-05-16 17:04:00,
2013-05-16 12:09:00,81.6,70.5,28.35,SW,225,2.1,12.4,69,0.00,,,0.00,Rainwise IP-100,2013-05-16 17:09:00,
2013-05-16 12:14:00,81.9,70.5,28.35,WSW,247,7.0,13.1,68,0.00,,,0.00,Rainwise IP-100,2013-05-16 17:14:00,
2013-05-16 12:19:00,82.2,70.5,28.35,SW,225,3.5,9.6,68,0.00,,,0.00,Rainwise IP-100,2013-05-16 17:19:00,
2013-05-16 12:24:00,82.4,71.0,28.35,SW,225,4.2,9.6,68,0.00,,,0.00,Rainwise IP-100,2013-05-16 17:24:00,
2013-05-16 12:29:00,82.8,71.3,28.35,SE,135,3.5,11.0,68,0.00,,,0.00,Rainwise IP-100,2013-05-16 17:29:00,
2013-05-16 12:34:00,83.2,71.3,28.35,WSW,247,4.0,8.4,67,0.00,,,0.00,Rainwise IP-100,2013-05-16 17:34:00,
2013-05-16 12:39:00,83.7,71.3,28.35,SSE,157,7.0,8.6,66,0.00,,,0.00,Rainwise IP-100,2013-05-16 17:39:00,
2013-05-16 12:44:00,83.8,71.0,28.35,SSW,202,3.5,11.2,65,0.00,,,0.00,Rainwise IP-100,2013-05-16 17:44:00,
2013-05-16 12:49:00,83.9,71.0,28.34,SW,225,5.1,11.7,64,0.00,,,0.00,Rainwise IP-100,2013-05-16 17:49:00,
2013-05-16 12:54:00,83.9,71.0,28.34,ESE,112,4.0,11.4,64,0.00,,,0.00,Rainwise IP-100,2013-05-16 17:54:00,
2013-05-16 12:59:00,84.1,70.0,28.34,SSW,202,6.8,12.8,63,0.00,,,0.00,Rainwise IP-100,2013-05-16 17:59:00,
2013-05-16 13:04:00,84.5,71.0,28.34,SSE,157,7.2,9.8,63,0.00,,,0.00,Rainwise IP-100,2013-05-16 18:04:00,
2013-05-16 13:09:00,84.8,70.0,28.34,SSE,157,3.7,10.3,62,0.00,,,0.00,Rainwise IP-100,2013-05-16 18:09:00,
2013-05-16 13:14:00,85.0,70.0,28.34,SW,225,3.5,7.7,61,0.00,,,0.00,Rainwise IP-100,2013-05-16 18:14:00,
2013-05-16 13:19:00,85.2,69.3,28.34,ENE,67,0.0,4.9,59,0.00,,,0.00,Rainwise IP-100,2013-05-16 18:19:00,
2013-05-16 13:24:00,85.6,69.7,28.34,WSW,247,3.3,7.0,59,0.00,,,0.00,Rainwise IP-100,2013-05-16 18:24:00,
2013-05-16 13:29:00,86.1,70.0,28.33,South,180,5.4,8.9,59,0.00,,,0.00,Rainwise IP-100,2013-05-16 18:29:00,
2013-05-16 13:34:00,86.2,69.7,28.33,SSW,202,4.4,10.3,58,0.00,,,0.00,Rainwise IP-100,2013-05-16 18:34:00,
2013-05-16 13:39:00,86.3,69.0,28.33,East,90,0.0,10.5,56,0.00,,,0.00,Rainwise IP-100,2013-05-16 18:39:00,
2013-05-16 13:44:00,86.5,69.0,28.33,SSE,157,5.1,7.5,56,0.00,,,0.00,Rainwise IP-100,2013-05-16 18:44:00,
2013-05-16 13:49:00,86.7,69.3,28.33,WSW,247,3.0,10.3,56,0.00,,,0.00,Rainwise IP-100,2013-05-16 18:49:00,
2013-05-16 13:54:00,86.9,69.3,28.33,SSW,202,9.3,9.3,56,0.00,,,0.00,Rainwise IP-100,2013-05-16 18:54:00,
2013-05-16 13:59:00,87.2,69.3,28.33,SE,135,3.7,9.3,55,0.00,,,0.00,Rainwise IP-100,2013-05-16 18:59:00,
2013-05-16 14:04:00,87.5,69.0,28.33,SSE,157,5.8,7.0,54,0.00,,,0.00,Rainwise IP-100,2013-05-16 19:04:00,
2013-05-16 14:09:00,87.7,68.5,28.32,SSE,157,5.6,6.5,53,0.00,,,0.00,Rainwise IP-100,2013-05-16 19:09:00,
2013-05-16 14:14:00,87.9,68.5,28.33,SE,135,2.1,8.2,52,0.00,,,0.00,Rainwise IP-100,2013-05-16 19:14:00,
2013-05-16 14:19:00,88.0,68.5,28.32,ESE,112,2.6,7.7,52,0.00,,,0.00,Rainwise IP-100,2013-05-16 19:19:00,
2013-05-16 14:24:00,88.0,67.5,28.33,East,90,3.3,6.5,51,0.00,,,0.00,Rainwise IP-100,2013-05-16 19:24:00,
2013-05-16 14:29:00,88.1,67.5,28.32,SE,135,4.4,4.4,51,0.00,,,0.00,Rainwise IP-100,2013-05-16 19:29:00,
2013-05-16 14:34:00,88.5,67.5,28.32,SSE,157,3.0,5.6,50,0.00,,,0.00,Rainwise IP-100,2013-05-16 19:34:00,
2013-05-16 14:39:00,89.1,67.5,28.32,South,180,1.4,6.3,49,0.00,,,0.00,Rainwise IP-100,2013-05-16 19:39:00,
2013-05-16 14:44:00,89.7,68.0,28.32,ENE,67,3.3,5.1,49,0.00,,,0.00,Rainwise IP-100,2013-05-16 19:44:00,
2013-05-16 14:49:00,89.9,68.5,28.32,SW,225,5.1,8.4,49,0.00,,,0.00,Rainwise IP-100,2013-05-16 19:49:00,
2013-05-16 14:54:00,89.4,68.0,28.31,ESE,112,3.7,6.8,49,0.00,,,0.00,Rainwise IP-100,2013-05-16 19:54:00,
2013-05-16 14:59:00,89.4,67.0,28.32,NW,315,3.5,7.9,48,0.00,,,0.00,Rainwise IP-100,2013-05-16 19:59:00,
2013-05-16 15:04:00,90.1,68.0,28.31,SSE,157,4.9,6.3,48,0.00,,,0.00,Rainwise IP-100,2013-05-16 20:04:00,
2013-05-16 15:09:00,90.3,68.0,28.31,SSE,157,2.8,5.6,48,0.00,,,0.00,Rainwise IP-100,2013-05-16 20:09:00,
2013-05-16 15:14:00,90.4,67.5,28.31,WSW,247,4.4,6.3,47,0.00,,,0.00,Rainwise IP-100,2013-05-16 20:14:00,
2013-05-16 15:19:00,90.8,67.0,28.31,WNW,292,1.2,10.5,46,0.00,,,0.00,Rainwise IP-100,2013-05-16 20:19:00,
2013-05-16 15:24:00,90.4,67.5,28.31,ENE,67,1.4,4.2,47,0.00,,,0.00,Rainwise IP-100,2013-05-16 20:24:00,
2013-05-16 15:29:00,90.3,68.0,28.31,ESE,112,0.0,7.0,48,0.00,,,0.00,Rainwise IP-100,2013-05-16 20:29:00,
2013-05-16 15:34:00,90.7,68.5,28.30,ENE,67,5.4,6.3,48,0.00,,,0.00,Rainwise IP-100,2013-05-16 20:34:00,
2013-05-16 15:39:00,90.9,69.0,28.31,SSE,157,0.0,5.8,48,0.00,,,0.00,Rainwise IP-100,2013-05-16 20:39:00,
2013-05-16 15:44:00,91.1,69.0,28.30,SE,135,3.3,5.6,48,0.00,,,0.00,Rainwise IP-100,2013-05-16 20:44:00,
2013-05-16 15:49:00,91.1,69.0,28.30,ESE,112,0.0,8.2,48,0.00,,,0.00,Rainwise IP-100,2013-05-16 20:49:00,
2013-05-16 15:54:00,91.1,69.0,28.30,South,180,3.0,7.5,48,0.00,,,0.00,Rainwise IP-100,2013-05-16 20:54:00,
2013-05-16 15:59:00,91.5,69.3,28.30,South,180,2.3,5.1,48,0.00,,,0.00,Rainwise IP-100,2013-05-16 20:59:00,
2013-05-16 16:04:00,91.9,69.0,28.30,SSE,157,0.0,5.6,47,0.00,,,0.00,Rainwise IP-100,2013-05-16 21:04:00,
2013-05-16 16:09:00,91.7,68.0,28.29,SE,135,1.6,4.9,46,0.00,,,0.00,Rainwise IP-100,2013-05-16 21:09:00,
2013-05-16 16:14:00,92.1,68.5,28.30,SSE,157,4.4,5.1,46,0.00,,,0.00,Rainwise IP-100,2013-05-16 21:14:00,
2013-05-16 16:19:00,92.3,68.0,28.29,ESE,112,3.0,7.2,45,0.00,,,0.00,Rainwise IP-100,2013-05-16 21:19:00,
2013-05-16 16:24:00,92.3,68.0,28.30,SE,135,6.3,6.3,45,0.00,,,0.00,Rainwise IP-100,2013-05-16 21:24:00,
2013-05-16 16:29:00,92.3,68.0,28.29,ESE,112,4.2,7.5,45,0.00,,,0.00,Rainwise IP-100,2013-05-16 21:29:00,
2013-05-16 16:34:00,91.6,67.0,28.29,SSE,157,3.7,6.3,45,0.00,,,0.00,Rainwise IP-100,2013-05-16 21:34:00,
2013-05-16 16:39:00,91.7,67.5,28.29,WSW,247,1.4,4.7,45,0.00,,,0.00,Rainwise IP-100,2013-05-16 21:39:00,
2013-05-16 16:44:00,92.4,68.0,28.29,ENE,67,0.0,3.5,45,0.00,,,0.00,Rainwise IP-100,2013-05-16 21:44:00,
2013-05-16 16:49:00,93.1,68.0,28.28,SSE,157,2.1,4.0,44,0.00,,,0.00,Rainwise IP-100,2013-05-16 21:49:00,
2013-05-16 16:54:00,92.4,67.0,28.29,ESE,112,2.3,7.0,44,0.00,,,0.00,Rainwise IP-100,2013-05-16 21:54:00,
2013-05-16 16:59:00,91.6,66.7,28.29,ESE,112,1.9,6.3,44,0.00,,,0.00,Rainwise IP-100,2013-05-16 21:59:00,
2013-05-16 17:04:00,91.7,67.5,28.28,East,90,4.0,7.7,45,0.00,,,0.00,Rainwise IP-100,2013-05-16 22:04:00,
2013-05-16 17:09:00,91.6,67.0,28.28,East,90,4.2,7.7,45,0.00,,,0.00,Rainwise IP-100,2013-05-16 22:09:00,
2013-05-16 17:14:00,91.2,67.0,28.28,East,90,3.5,6.5,45,0.00,,,0.00,Rainwise IP-100,2013-05-16 22:14:00,
2013-05-16 17:19:00,91.7,67.5,28.28,ENE,67,2.1,4.7,45,0.00,,,0.00,Rainwise IP-100,2013-05-16 22:19:00,
2013-05-16 17:24:00,92.3,67.0,28.27,SSE,157,2.3,5.6,44,0.00,,,0.00,Rainwise IP-100,2013-05-16 22:24:00,
2013-05-16 17:29:00,92.5,66.3,28.27,East,90,4.2,7.5,42,0.00,,,0.00,Rainwise IP-100,2013-05-16 22:29:00,
2013-05-16 17:34:00,92.2,66.3,28.27,East,90,4.4,7.2,43,0.00,,,0.00,Rainwise IP-100,2013-05-16 22:34:00,
2013-05-16 17:39:00,91.8,66.7,28.27,ESE,112,5.4,6.5,44,0.00,,,0.00,Rainwise IP-100,2013-05-16 22:39:00,
2013-05-16 17:44:00,91.8,66.7,28.27,ESE,112,7.2,8.6,44,0.00,,,0.00,Rainwise IP-100,2013-05-16 22:44:00,
2013-05-16 17:49:00,91.6,67.0,28.27,SE,135,2.3,9.6,45,0.00,,,0.00,Rainwise IP-100,2013-05-16 22:49:00,
2013-05-16 17:54:00,91.2,68.5,28.27,ESE,112,4.7,11.7,47,0.00,,,0.00,Rainwise IP-100,2013-05-16 22:54:00,
2013-05-16 17:59:00,90.7,69.3,28.27,SSE,157,6.1,11.7,49,0.00,,,0.00,Rainwise IP-100,2013-05-16 22:59:00,
2013-05-16 18:04:00,90.3,69.7,28.28,ESE,112,3.3,8.9,51,0.00,,,0.00,Rainwise IP-100,2013-05-16 23:04:00,
2013-05-16 18:09:00,90.2,70.0,28.27,SSE,157,7.7,11.0,52,0.00,,,0.00,Rainwise IP-100,2013-05-16 23:09:00,
2013-05-16 18:14:00,89.9,70.0,28.28,ESE,112,3.7,9.3,52,0.00,,,0.00,Rainwise IP-100,2013-05-16 23:14:00,
2013-05-16 18:19:00,89.6,70.0,28.28,SE,135,7.5,9.8,53,0.00,,,0.00,Rainwise IP-100,2013-05-16 23:19:00,
2013-05-16 18:24:00,89.4,71.0,28.27,ESE,112,6.3,11.2,54,0.00,,,0.00,Rainwise IP-100,2013-05-16 23:24:00,
2013-05-16 18:29:00,89.2,70.5,28.27,SSE,157,5.6,12.8,54,0.00,,,0.00,Rainwise IP-100,2013-05-16 23:29:00,
2013-05-16 18:34:00,88.9,71.0,28.27,ENE,67,7.9,12.6,55,0.00,,,0.00,Rainwise IP-100,2013-05-16 23:34:00,
2013-05-16 18:39:00,88.8,70.5,28.27,SE,135,4.9,11.2,55,0.00,,,0.00,Rainwise IP-100,2013-05-16 23:39:00,
2013-05-16 18:44:00,88.7,70.5,28.28,SE,135,4.4,13.1,55,0.00,,,0.00,Rainwise IP-100,2013-05-16 23:44:00,
2013-05-16 18:49:00,88.5,70.5,28.28,East,90,3.5,7.7,55,0.00,,,0.00,Rainwise IP-100,2013-05-16 23:49:00,
2013-05-16 18:54:00,88.2,71.0,28.28,ENE,67,3.0,12.6,56,0.00,,,0.00,Rainwise IP-100,2013-05-16 23:54:00,
2013-05-16 18:59:00,87.8,70.0,28.28,ESE,112,4.2,14.2,56,0.00,,,0.00,Rainwise IP-100,2013-05-16 23:59:00,
2013-05-16 19:04:00,87.4,71.0,28.28,ESE,112,8.2,11.2,58,0.00,,,0.00,Rainwise IP-100,2013-05-17 00:04:00,
2013-05-16 19:09:00,87.0,71.0,28.28,SSE,157,7.0,11.9,59,0.00,,,0.00,Rainwise IP-100,2013-05-17 00:09:00,
2013-05-16 19:14:00,86.6,71.0,28.28,ENE,67,5.8,11.4,60,0.00,,,0.00,Rainwise IP-100,2013-05-17 00:14:00,
2013-05-16 19:19:00,86.3,71.3,28.28,SE,135,2.1,10.7,61,0.00,,,0.00,Rainwise IP-100,2013-05-17 00:19:00,
2013-05-16 19:24:00,85.9,71.0,28.29,ESE,112,6.8,10.0,61,0.00,,,0.00,Rainwise IP-100,2013-05-17 00:24:00,
2013-05-16 19:29:00,85.7,71.3,28.29,ESE,112,8.4,10.7,62,0.00,,,0.00,Rainwise IP-100,2013-05-17 00:29:00,
2013-05-16 19:34:00,85.4,71.3,28.29,East,90,2.3,10.7,63,0.00,,,0.00,Rainwise IP-100,2013-05-17 00:34:00,
2013-05-16 19:39:00,85.1,71.0,28.29,SE,135,2.8,10.0,63,0.00,,,0.00,Rainwise IP-100,2013-05-17 00:39:00,
2013-05-16 19:44:00,85.0,71.3,28.29,ENE,67,5.6,8.6,64,0.00,,,0.00,Rainwise IP-100,2013-05-17 00:44:00,
2013-05-16 19:45:00,84.9,71.3,28.29,ENE,67,4.0,10.7,64,0.00,,,0.00,Rainwise IP-100,2013-05-17 00:45:00,
2013-05-16 19:50:00,84.6,71.7,28.29,East,90,4.0,10.3,65,0.00,,,0.00,Rainwise IP-100,2013-05-17 00:50:00,
2013-05-16 19:55:00,84.3,71.3,28.29,East,90,5.6,9.6,65,0.00,,,0.00,Rainwise IP-100,2013-05-17 00:55:00,
2013-05-16 20:00:00,84.0,71.7,28.30,SSE,157,4.0,9.8,66,0.00,,,0.00,Rainwise IP-100,2013-05-17 01:00:00,
2013-05-16 20:05:00,83.7,71.3,28.30,East,90,4.0,8.6,66,0.00,,,0.00,Rainwise IP-100,2013-05-17 01:05:00,
2013-05-16 20:10:00,83.4,71.7,28.30,ENE,67,4.9,8.9,67,0.00,,,0.00,Rainwise IP-100,2013-05-17 01:10:00,
2013-05-16 20:15:00,83.2,71.3,28.30,ESE,112,3.5,8.4,67,0.00,,,0.00,Rainwise IP-100,2013-05-17 01:15:00,
2013-05-16 20:20:00,82.8,71.3,28.30,East,90,2.6,7.7,68,0.00,,,0.00,Rainwise IP-100,2013-05-17 01:20:00,
2013-05-16 20:25:00,82.4,71.3,28.30,ESE,112,3.3,8.4,69,0.00,,,0.00,Rainwise IP-100,2013-05-17 01:25:00,
2013-05-16 20:30:00,82.2,71.3,28.30,East,90,4.7,8.6,69,0.00,,,0.00,Rainwise IP-100,2013-05-17 01:30:00,
2013-05-16 20:35:00,81.9,71.3,28.30,East,90,1.9,6.3,70,0.00,,,0.00,Rainwise IP-100,2013-05-17 01:35:00,
2013-05-16 20:40:00,81.5,71.0,28.31,ESE,112,1.4,6.3,70,0.00,,,0.00,Rainwise IP-100,2013-05-17 01:40:00,
2013-05-16 20:45:00,81.3,71.0,28.30,ENE,67,5.6,7.2,70,0.00,,,0.00,Rainwise IP-100,2013-05-17 01:45:00,
2013-05-16 20:50:00,81.1,71.0,28.30,ENE,67,3.3,8.6,71,0.00,,,0.00,Rainwise IP-100,2013-05-17 01:50:00,
2013-05-16 20:55:00,81.1,71.0,28.31,East,90,4.0,8.2,71,0.00,,,0.00,Rainwise IP-100,2013-05-17 01:55:00,
2013-05-16 21:00:00,80.8,70.5,28.31,SE,135,2.1,7.7,71,0.00,,,0.00,Rainwise IP-100,2013-05-17 02:00:00,
2013-05-16 21:05:00,80.6,71.0,28.31,ENE,67,3.7,8.2,72,0.00,,,0.00,Rainwise IP-100,2013-05-17 02:05:00,
2013-05-16 21:10:00,80.6,70.5,28.31,ESE,112,2.1,8.9,71,0.00,,,0.00,Rainwise IP-100,2013-05-17 02:10:00,
2013-05-16 21:15:00,80.6,70.5,28.32,ENE,67,1.4,7.7,71,0.00,,,0.00,Rainwise IP-100,2013-05-17 02:15:00,
2013-05-16 21:20:00,80.5,70.5,28.31,ESE,112,1.9,10.3,71,0.00,,,0.00,Rainwise IP-100,2013-05-17 02:20:00,
2013-05-16 21:25:00,80.4,70.5,28.32,ESE,112,4.7,8.2,71,0.00,,,0.00,Rainwise IP-100,2013-05-17 02:25:00,
2013-05-16 21:30:00,80.2,70.0,28.32,ENE,67,5.1,8.9,71,0.00,,,0.00,Rainwise IP-100,2013-05-17 02:30:00,
2013-05-16 21:35:00,80.1,69.7,28.31,ESE,112,4.7,8.4,71,0.00,,,0.00,Rainwise IP-100,2013-05-17 02:35:00,
2013-05-16 21:40:00,79.9,70.0,28.32,ENE,67,4.9,7.2,72,0.00,,,0.00,Rainwise IP-100,2013-05-17 02:40:00,
2013-05-16 21:45:00,79.8,69.7,28.32,ENE,67,4.4,8.4,72,0.00,,,0.00,Rainwise IP-100,2013-05-17 02:45:00,
2013-05-16 21:50:00,79.5,69.7,28.32,East,90,2.3,7.5,72,0.00,,,0.00,Rainwise IP-100,2013-05-17 02:50:00,
2013-05-16 21:55:00,79.3,70.0,28.32,SE,135,3.7,9.3,73,0.00,,,0.00,Rainwise IP-100,2013-05-17 02:55:00,
2013-05-16 22:00:00,79.3,69.7,28.33,ENE,67,2.6,9.6,72,0.00,,,0.00,Rainwise IP-100,2013-05-17 03:00:00,
2013-05-16 22:05:00,79.3,69.7,28.33,East,90,4.0,6.8,72,0.00,,,0.00,Rainwise IP-100,2013-05-17 03:05:00,
2013-05-16 22:10:00,79.3,69.7,28.33,ESE,112,4.0,7.2,72,0.00,,,0.00,Rainwise IP-100,2013-05-17 03:10:00,
2013-05-16 22:15:00,79.3,69.7,28.33,ENE,67,4.4,8.9,72,0.00,,,0.00,Rainwise IP-100,2013-05-17 03:15:00,
2013-05-16 22:20:00,79.1,69.3,28.33,ESE,112,3.0,7.7,72,0.00,,,0.00,Rainwise IP-100,2013-05-17 03:20:00,
2013-05-16 22:25:00,78.9,69.3,28.33,ENE,67,8.4,8.4,72,0.00,,,0.00,Rainwise IP-100,2013-05-17 03:25:00,
2013-05-16 22:30:00,79.0,69.0,28.33,East,90,4.0,10.3,71,0.00,,,0.00,Rainwise IP-100,2013-05-17 03:30:00,
2013-05-16 22:35:00,79.0,69.0,28.33,East,90,2.6,6.8,71,0.00,,,0.00,Rainwise IP-100,2013-05-17 03:35:00,
2013-05-16 22:40:00,79.0,69.0,28.33,ESE,112,2.3,7.5,71,0.00,,,0.00,Rainwise IP-100,2013-05-17 03:40:00,
2013-05-16 22:45:00,78.9,69.0,28.33,East,90,4.0,7.9,71,0.00,,,0.00,Rainwise IP-100,2013-05-17 03:45:00,
2013-05-16 22:50:00,78.8,68.5,28.34,ENE,67,5.6,8.4,71,0.00,,,0.00,Rainwise IP-100,2013-05-17 03:50:00,
2013-05-16 22:55:00,78.9,69.0,28.34,East,90,6.8,8.4,71,0.00,,,0.00,Rainwise IP-100,2013-05-17 03:55:00,
2013-05-16 23:00:00,78.8,68.5,28.33,East,90,5.1,10.3,71,0.00,,,0.00,Rainwise IP-100,2013-05-17 04:00:00,
2013-05-16 23:01:00,78.8,68.5,28.34,ESE,112,9.1,10.3,71,0.00,,,0.00,Rainwise IP-100,2013-05-17 04:01:00,
2013-05-16 23:06:00,78.5,68.5,28.33,ESE,112,3.0,9.1,71,0.00,,,0.00,Rainwise IP-100,2013-05-17 04:06:00,
2013-05-16 23:11:00,78.3,69.0,28.34,ENE,67,5.8,9.8,72,0.00,,,0.00,Rainwise IP-100,2013-05-17 04:11:00,
2013-05-16 23:16:00,78.2,69.3,28.34,ESE,112,4.4,8.4,73,0.00,,,0.00,Rainwise IP-100,2013-05-17 04:16:00,
2013-05-16 23:21:00,78.0,69.3,28.34,East,90,3.0,8.2,74,0.00,,,0.00,Rainwise IP-100,2013-05-17 04:21:00,
2013-05-16 23:26:00,77.8,69.0,28.34,ENE,67,6.5,8.4,74,0.00,,,0.00,Rainwise IP-100,2013-05-17 04:26:00,
2013-05-16 23:31:00,77.7,69.3,28.34,East,90,2.8,8.4,75,0.00,,,0.00,Rainwise IP-100,2013-05-17 04:31:00,
2013-05-16 23:36:00,77.5,69.7,28.34,ESE,112,1.4,10.5,76,0.00,,,0.00,Rainwise IP-100,2013-05-17 04:36:00,
2013-05-16 23:41:00,77.2,69.7,28.34,SE,135,4.2,9.6,77,0.00,,,0.00,Rainwise IP-100,2013-05-17 04:41:00,
2013-05-16 23:46:00,76.9,69.3,28.34,SSE,157,2.6,6.5,77,0.00,,,0.00,Rainwise IP-100,2013-05-17 04:46:00,
2013-05-16 23:51:00,76.7,69.7,28.34,SE,135,1.4,9.1,78,0.00,,,0.00,Rainwise IP-100,2013-05-17 04:51:00,
2013-05-16 23:56:00,76.5,69.7,28.34,ESE,112,3.0,5.8,79,0.00,,,0.00,Rainwise IP-100,2013-05-17 04:56:00,